Weather observations for the past three days for
San Jose Del Cabo
Imperial (Metric)
Date Time (mst) Wind (mph) Vis. (mi.) Weather Sky Cond. Temperature (ºF) Relative Humidity Wind Chill (°F) Heat Index (°F) Pressure Precipitation (in)
Air Dwpt 6 hour altimeter (in) sea level (mb) 1 hr 3 hr 6 hr
Max. Min.
22 01:40 NW 3 12.00 Clear SKC 82.4 59 45% 82 29.83 0.0
22 00:42 NW 3 12.00 Clear SKC 84.2 57.2 40% 83 29.85 0.0
21 23:40 Calm 12.00 Clear SKC 84.2 57.2 40% 83 29.86 0.0
21 22:40 NW 3 12.00 Clear SKC 86 57.2 38% 85 29.87 0.0
21 21:40 NW 2 12.00 Clear SKC 86 53.6 33% 84 29.87 0.0
21 20:40 N 2 12.00 Clear SKC 87.8 55.4 33% 86 29.85 0.0
21 19:45 E 7 12.00 Clear SKC 89.6 55.4 31% 88 29.84 0.0
21 18:40 E 7 12.00 Clear SKC 91.4 55.4 30% 90 29.81 0.0
21 17:50 E 8 12.00 Clear SKC 91.4 55.4 30% 90 29.81 0.0
21 16:43 SE 12 10.00 Clear SKC 93.2 53.6 26% 91 29.8 1007.4
21 14:40 SE 14 10.00 A Few Clouds FEW040 93.2 53.6 26% 91 29.85 0.0
21 13:43 E 12 10.00 A Few Clouds FEW040 93.2 57.2 30% 92 29.87 1009.7
21 12:50 S 12 10.00 A Few Clouds FEW040 93.2 62.6 36% 94 29.88 0.0
21 11:43 S 13 10.00 A Few Clouds FEW040 93.2 64.4 39% 95 29.9 0.0
21 10:44 S 6 10.00 Partly Cloudy SCT120 91.4 64.4 41% 93 29.91 1011.1
21 09:40 NE 7 10.00 Mostly Cloudy BKN120 91.4 59 34% 91 29.92 0.0
21 08:48 N 6 10.00 Partly Cloudy SCT120 89.6 60.8 38% 90 29.92 0.0
21 07:40 NW 7 10.00 Clear SKC 86 68 55% 89 29.92 1011.6
21 06:40 NW 6 10.00 Clear SKC 82.4 68 62% 85 29.91 0.0
21 05:40 NW 7 10.00 Clear SKC 78.8 60.8 54% 80 29.91 0.0
21 04:40 N 2 10.00 Clear SKC 78.8 62.6 58% 80 29.9 1010.8
21 02:40 W 3 10.00 Clear SKC 78.8 60.8 54% 80 29.9 0.0
21 01:40 Calm 10.00 Clear SKC 80.6 66.2 62% 83 29.91 1011.2
21 00:40 Calm 10.00 Clear SKC 80.6 68 66% 83 29.92 0.0
20 23:41 NW 2 10.00 Clear SKC 80.6 66.2 62% 83 29.92 0.0
20 22:40 E 2 10.00 Clear SKC 84.2 66.2 55% 87 29.93 1011.7
20 21:40 NW 2 10.00 Clear SKC 82.4 53.6 37% 81 29.92 0.0
20 20:45 NW 2 10.00 Clear SKC 84.2 62.6 48% 85 29.91 0.0
20 19:40 SE 6 10.00 Clear SKC 86 62.6 46% 87 29.88 1011.1
20 18:43 SE 12 10.00 Clear SKC 87.8 55.4 33% 86 29.86 0.0
20 17:42 E 14 10.00 Clear SKC 89.6 57.2 33% 88 29.85 0.0
20 17:02 E 10 10.00 Clear SKC 89.6 57.2 33% 88 29.85 1008.9
20 15:44 SE 10 10.00 Clear SKC 87.8 68 52% 91 29.86 0.0
20 14:43 S 13 10.00 Clear SKC 91.4 66.2 44% 94 29.88 0.0
20 13:45 S 16 10.00 Clear SKC 89.6 68 49% 93 29.89 1010.5
20 12:41 SE 16 10.00 Clear SKC 91.4 64.4 41% 93 29.9 0.0
20 11:43 SE 16 10.00 Clear SKC 93.2 64.4 39% 95 29.91 0.0
20 10:42 SE 14 10.00 Clear SKC 93.2 64.4 39% 95 29.92 1011.3
20 09:43 NW 9 10.00 Clear SKC 91.4 59 34% 91 29.94 0.0
20 08:48 N 9 10.00 Clear SKC 87.8 68 52% 91 29.94 0.0
20 07:45 N 7 10.00 Clear SKC 84.2 71.6 66% 90 29.94 1012.0
20 06:55 NW 6 10.00 Clear SKC 80.6 73.4 79% 85 29.94 0.0
20 05:45 NW 6 10.00 Clear SKC 78.8 71.6 79% 82 29.92 0.0
20 05:00 NW 6 10.00 Clear SKC 78.8 71.6 79% 82 29.91 0.0
19 22:43 N 5 10.00 Clear SKC 82.4 59 45% 82 29.94 1011.7
19 21:42 Calm 10.00 Clear SKC 84.2 59 43% 84 29.92 0.0
19 20:41 NW 6 10.00 Clear SKC 84.2 59 43% 84 29.9 0.0
19 19:41 E 6 10.00 Clear SKC 86 57.2 38% 85 29.86 1009.9
19 18:51 SE 14 10.00 Clear SKC 86 59 40% 85 29.85 0.0
19 17:41 SE 14 10.00 Clear SKC 89.6 64.4 43% 91 29.82 0.0
19 16:41 SE 12 10.00 Clear SKC 91.4 60.8 36% 91 29.83 1008.4
19 15:52 S 12 10.00 Clear SKC 89.6 62.6 41% 90 29.84 0.0
19 15:00 SE 12 10.00 A Few Clouds FEW040 91.4 60.8 36% 91 29.86 0.0
19 13:45 SE 16 10.00 Clear SKC 93.2 60.8 34% 93 29.89 1010.1
19 12:45 SE 16 10.00 Clear SKC 93.2 68 44% 98 29.89 0.0
19 11:48 SE 14 10.00 Clear SKC 91.4 69.8 49% 97 29.89 0.0
19 10:47 SE 12 10.00 Clear SKC 95 68 41% 100 29.9 1010.6
19 09:45 NE 6 10.00 Clear SKC 95 59 30% 94 29.92 0.0
19 08:43 N 12 10.00 Clear SKC 91.4 59 34% 91 29.93 0.0
19 07:47 NW 12 10.00 Clear SKC 87.8 60.8 40% 88 29.94 1012.0
19 06:42 NW 9 10.00 Clear SKC 82.4 60.8 48% 83 29.94 0.0
19 05:55 NW 5 10.00 Clear SKC 80.6 59 48% 81 29.92 0.0
19 05:00 Calm 10.00 Clear SKC 78.8 57.2 48% 80 29.91 0.0
Date Time (mst) Wind (mph) Vis. (mi.) Weather Sky Cond. Air Dwpt Max. Min. Relative Humidity Wind Chill (°F) Heat Index (°F) altimeter (in) sea level (mb) 1 hr 3 hr 6 hr
6 hour
Temperature (ºF) Pressure Precipitation (in)